NapervilleWeather.com

Find the Weather for any City, State  
or Zipcode, or Country:

Naperville, IL Weather
Local Radar

Local Radar

Graphs, Details
Graphs and Gauges
Detailed Weather
Detailed Reports
Ajax Version (old)
Davis Summary
Davis Current Weather Graphs
Davis 24 Hour Weather History
Cumulus

CW7164 Data

Weather Underground
www.awekas.at
Automatic Weather Map System
Latest Naperville, Illinois, weather
Weather For You
Maps
Temperature
Heat Index
Windchill
Humidity
Radar
Dew Point
Wind
Visibility
Visible Satellite
Satellite
Fronts
Snow Depth
Jet Stream
Flight Rules
Forecast Maps
Temperature Forecast
Maximum Temperature Forecast
Minimum Temperature Forecast
Dewpoint Forecast
Prevalent Weather
12Hr Probability of Precip.
Sky Cover
Health Maps
UV Forecast
Air Quality
Peak Air Quality Index
Weather Station
Davis Instruments Vantage Pro2
Current Conditions [Select Refresh to Update]

Updated: 4:13pm on 1/28/15

(location)
Currently:
33.7°F

Clear
Clear

High: 35.3 °F< 
(12:46pm
Low: 17.8 °F 
(7:25am)
Wind: NE 0 mph
Calm
Gust: 7 mph
Today's High Wind: 14 mph (3:17pm)
Humidity: 62%
Pressure: 30.10 in  (Falling
Pressure Rate: -0.036 in/hr
Dew Point: 22.1°F
Wind Chill: 33.7 °F
Heat Index (feels like): 35.7 °F
Comfort Level: Cool
Temperature Rate:  -0.13°F/hr
 
5 Day Forecast
 
Wed Thu Fri Sat Sun
Clear Clear Clear Clear Clear
Mostly Cloudy Chance Sleet Partly Cloudy Partly Cloudy Chance Snow
36 37 28 39 28
30 18 12 18 5

Records and Normals
 
Temperature Forecast Normal Record
High 36 32 52
(2002)
Low 30 16 -14
(2014)
 
 
Weather Advisories
No Warnings
Full Advisory Text...
Weather Map

Web Cam

Almanac
 
Sunrise:  
7:07am
Moonrise: 
12:07pm

Moon Phase:
67%

Sunset: 
5:00pm
Moonset:  
1:40am
 Star Chart...
Rainfall Totals
Hourly Rain 0.00 in
Daily Rain: 0.01 in
Monthly Rain: 0.70 in
Yearly Rain: 0.70 in
Normal Rain, month to date: 0.76 in
Normal Rain, year to date: 0.76 in
Local Weather Exchange Network
Station ID City 
(Click for Map Location)
Neighborhood 
(Click for History)
Last Update (Date & Time) Temperature
 ()
Dew
Point ()
Humidity 
(%)
Wind 
(mph)
from the Wind Gust 
(mph) 
Pressure(in) Hourly
Rain(in)
KILWARRE5 Warrenville Briergate Drive 01/28 15:51:23 34.3 23.0 64 0 North 0 30.12 0.00
KILNAPER40 Naperville Downtown 01/28 15:51:24 34.2 25.0 70 0 North 0 30.14 0.00
KILNAPER15 Naperville Indian Hill Near Jefferson JHS 01/28 15:55:01 34.2 26.0 73 11 SSE 11 30.08 0.00
KILNAPER33 Naperville Downtown 01/28 15:51:03 34.7 31.0 87 0 North 0 30.00 0.00
KILNAPER28 Naperville Pawnee Lane 01/28 15:50:45 36.7 24.0 59 0 North 0 30.12 0.00
KILNAPER25 Naperville brushhill-w 01/28 15:45:04 34.1 24.0 67 2 SE 9 30.09 0.00
KILNAPER24 Naperville Brush Hill 01/28 15:50:25 34.1 25.0 68 3 South 7 30.03 0.00
KILNAPER34 Naperville Downtown 01/28 15:51:04 36.7 23.0 57 0 North 0 29.67 0.00
KILNAPER19 Naperville Brookdale Lakes 01/28 15:55:05 33.3 24.0 69 7 ENE 19 30.01 0.00
KILNAPER7 Naperville NapervilleWeather.com Near Ogden and Naper Blvd 01/28 15:55:08 33.7 22.0 62 0 NE 7 30.11 0.00
MC7164 Naperville APRSWXNET Naperville IL US 01/28 15:13:00 34.0 22.0 62 0 ENE 12 30.13 0.00
KILWARRE2 Warrenville Warrenville Neighborhood Weather 01/28 15:46:55 33.9 25.0 69 1 SSE 0 30.07 0.00
MD4063 Warrenville APRSWXNET Warrenville IL US 01/28 15:31:00 33.0 24.0 69 7 ESE 0 30.07 0.00
KILNAPER38 Naperville East Highlands 01/28 15:55:02 34.3 22.0 59 0 ENE 0 30.23 0.00
KILNAPER23 Naperville Naper Blvd at BNSF RR 01/28 15:55:04 33.5 24.0 68 2 SE 13 30.11 0.00
KILNAPER27 Naperville River Rd and Rickert 01/28 15:50:13 32.2 21.0 62 3 SSW 5 30.07 0.00
KILNAPER30 Naperville Cypress Drive 01/28 15:50:19 36.5 24.0 60 0 North 0 29.89 0.00
KILLISLE10 Lisle Maple Avenue 01/28 15:51:22 37.2 22.0 54 0 North 0 30.14 0.00
KILLISLE9 Lisle Park Meadow Drive 01/28 15:50:31 37.2 25.0 62 0 North 0 30.08 0.00
KILWARRE6 Warrenville Summer Lakes 01/28 15:49:11 33.8 24.0 67 0 WSW 8 30.08 0.00
KILNAPER9 Naperville 75th St. / Modaff Area 01/28 15:54:59 34.0 25.0 69 2 SSE 2 30.08 0.00
ME2253 Naperville APRSWXNET Naperville IL US 01/28 15:34:00 34.0 25.0 69 2 ESE 11 30.09 0.00
KILLISLE7 Lisle Beau Monde Drive 01/28 15:50:23 33.3 23.0 66 0 North 0 30.12 0.00
KILWHEAT8 Wheaton Wheaton Sanitary District 01/28 15:46:01 34.9 26.0 71 1 South 7 30.10 0.00
KILWHEAT11 Wheaton Wheaton SW Orth Ct 01/28 15:55:08 34.9 24.0 63 0 South 3 30.14 0.00
KILLOMBA6 Wheaton Danada West 01/28 15:54:21 33.7 22.0 63 5 South 7 30.06 0.00
KILAUROR27 Aurora Stonehaven 01/28 15:46:34 33.6 25.0 70 6 South 0 29.90 0.00
KILNAPER35 Naperville Nutmeg Lane 01/28 15:51:21 34.2 25.0 69 0 North 0 30.13 0.00
ME4199 Naperville APRSWXNET Naperville IL US 01/28 15:28:00 33.0 24.0 68 11 SSE 17 30.06 0.01
KILNAPER16 Naperville SE Naperville / NE Clow Arpt 01/28 15:55:08 33.8 25.0 69 8 SE 16 30.10 0.00
KILNAPER22 Naperville Willow Ridge 01/28 15:46:41 33.4 27.0 76 3 West 0 29.87 0.00
MD1938 Wheaton APRSWXNET Wheaton IL US 01/28 15:24:00 34.0 23.0 64 8 SE 0 30.03 0.00
KILWHEAT5 Wheaton N9ABF - West Wheaton 01/28 15:55:01 33.9 23.0 65 9 SSE 0 30.02 0.00
KILGLENE9 Glen Ellyn Valley View 01/28 15:39:52 35.1 24.0 63 2 ESE 0 29.94 0.00
MD1973 Downers Grove APRSWXNET Woodridge IL US 01/28 15:33:00 33.0 24.0 69 5 SE 15 30.01 0.00
KILNAPER26 Naperville Landore Drive 01/28 15:50:31 35.1 27.0 71 0 North 0 30.07 0.00
KILNAPER37 Naperville Conan Doyle Road 01/28 15:51:22 35.1 27.0 73 0 North 0 30.03 0.00
MD5673 Downers Grove APRSWXNET Woodridge IL US 01/28 15:21:00 34.0 23.0 63 9 SSE 19 30.09 0.00
KILWOODR4 Woodridge Woodridge Neighborhood Weather 01/28 15:51:08 34.4 23.0 63 9 South 18 30.09 0.00
KDPA Chicago DuPage Official Station 01/28 14:52:00 33.0 21.0 61 13 SSE --- 30.10 ---
Full Advisory Text
No Warnings

Ambient Weather and Weather Underground
 Never base important decisions on this or any weather information obtained from the Internet
Updated Automatically by Ambient Weather's Virtual Weather Station  V14.01